Regional Weather Roundup
Issued by NWS Cleveland, OH

Home | Current Version | Previous Version | Graphics & Text | Print | Product List | Glossary On
Versions: 1 2 3 4 5 6 7 8 9 10 11 12 13 14 15 16 17 18 19 20 21 22 23 24 25 26 27 28 29 30 31 32 33 34 35 36 37 38 39 40 41 42 43 44 45 46 47 48 49 50
000
ASUS41 KCLE 270010
RWRCLE
OHIO REGIONAL WEATHER ROUNDUP
NATIONAL WEATHER SERVICE WILMINGTON, OH
800 PM EDT MON SEP 26 2016

NOTE: "FAIR" INDICATES FEW OR NO CLOUDS BELOW 12,000 FEET WITH NO
SIGNIFICANT WEATHER AND/OR OBSTRUCTIONS TO VISIBILITY.

OHZ001>008-015>018-024>027-034-035-043-044-270100-
   NORTHWEST OHIO

CITY           SKY/WX    TMP DP  RH WIND       PRES   REMARKS
DEFIANCE       FAIR      62  39  42 SW3       29.95R
FINDLAY        FAIR      59  43  55 SW7       29.95R
TOLEDO EXPRESS FAIR      61  43  51 SW7       29.93R
TOLEDO EXEC    FAIR      62  45  53 SW7       29.94R
LIMA           FAIR      61  44  53 SW7       29.97S
$$

OHZ009>014-019>023-028>033-038-089-270100-
   NORTHEAST OHIO

CITY           SKY/WX    TMP DP  RH WIND       PRES   REMARKS
CLE-HOPKINS    MOCLDY    62  47  57 S6        29.97R
CLE-LAKEFRONT  FAIR      62  48  60 SW9       29.94R
CUY CO. ARPT   PTCLDY    61  52  72 W9        29.95R
LORAIN-ELYRIA  FAIR      58  45  62 SW6       29.96R
ASHTABULA      FAIR      58  58 100 SW6       29.96R
AKRON-CANTON   MOCLDY    59  55  87 SW5       29.98R
WOOSTER        FAIR      54  49  83 S5        29.98R
MANSFIELD      FAIR      58  46  64 SW5       29.99R
YOUNGSTOWN     MOCLDY    57  55  93 SW6       29.98R
$$

OHZ042-051>053-060>062-070>072-077>081-270100-
  SOUTHWEST OHIO

CITY           SKY/WX    TMP DP  RH WIND       PRES   REMARKS
CINC-COVINGTON FAIR      61  51  70 SW3       30.04R
CINC-LUNKEN    FAIR      57  53  86 S7        30.04R
HAMILTON       FAIR      56  52  86 CALM      30.03S
DAYTON         FAIR      58  43  57 SW9       30.02R
WRIGHT-PAT AFB CLEAR     58  49  72 SW3       30.00S
DAYTON GENERAL FAIR      62  47  57 SW5       30.01S
WILMINGTON     FAIR      57  50  77 SW6       30.03R
$$

OHZ036-037-039>041-045>050-054>059-063>069-073>076-082>088-270100-
  CENTRAL AND SOUTHEAST OHIO

CITY           SKY/WX    TMP DP  RH WIND       PRES   REMARKS
COLUMBUS       MOCLDY    62  48  60 SW6       30.00R
OSU AIRPORT    FAIR      61  48  62 S6        30.00R
BOLTON FIELD   FAIR      57  49  74 S5        30.01R
RICKENBACK AFB FAIR      59  49  70 SW6       30.01R
NEWARK         FAIR      56  53  90 CALM      30.00R
MARION         FAIR      59  45  59 SW6       29.99R
LANCASTER      FAIR      58  50  75 W5        30.02R
ZANESVILLE     FAIR      59  56  89 S5        30.01R
NEW PHILLY     FAIR      59  57  93 CALM      30.00R
$$




USA.gov is the U.S. government's official web portal to all federal, state and local government web resources and services.